ARG1732 SABE-SAAP

Flight info

Callsign ARG1732
Flight time 0h 43m
Altitude 28000
Route BIVAM4B BIVAM UW8 PAR
Aircraft E190/M-SDE3GILORVW/S

Departure

Time 2026-04-20 00:09
Airport Aeroparque Jorge Newbery (SABE)

Arrival

Time 2026-04-20 00:52
Airport General Urquiza Airport (SAAP)
Time Latitude Longitude Altitude Speed Heading
2026-04-19 23:47 -34.55686 -58.41483 26 ft 0 kts 12°
2026-04-20 00:00 -34.55692 -58.41485 29 ft 4 kts 14°
2026-04-20 00:01 -34.55716 -58.41490 29 ft 4 kts 343°
2026-04-20 00:01 -34.55736 -58.41474 27 ft 4 kts 301°
2026-04-20 00:01 -34.55739 -58.41469 27 ft 1 kts 299°
2026-04-20 00:04 -34.55738 -58.41471 26 ft 2 kts 299°
2026-04-20 00:04 -34.55726 -58.41502 28 ft 6 kts 288°
2026-04-20 00:04 -34.55743 -58.41558 28 ft 9 kts 224°
2026-04-20 00:05 -34.55784 -58.41616 25 ft 10 kts 261°
2026-04-20 00:05 -34.55758 -58.41696 26 ft 11 kts 297°
2026-04-20 00:05 -34.55721 -58.41778 25 ft 12 kts 303°
2026-04-20 00:05 -34.55684 -58.41845 27 ft 9 kts 304°
2026-04-20 00:06 -34.55648 -58.41909 26 ft 9 kts 304°
2026-04-20 00:06 -34.55610 -58.41976 27 ft 10 kts 304°
2026-04-20 00:06 -34.55568 -58.42049 27 ft 11 kts 305°
2026-04-20 00:06 -34.55516 -58.42134 28 ft 14 kts 306°
2026-04-20 00:07 -34.55452 -58.42239 28 ft 15 kts 307°
2026-04-20 00:07 -34.55401 -58.42322 28 ft 13 kts 307°
2026-04-20 00:07 -34.55365 -58.42408 25 ft 12 kts 284°
2026-04-20 00:07 -34.55375 -58.42496 29 ft 9 kts 229°
2026-04-20 00:08 -34.55409 -58.42501 27 ft 4 kts 125°
2026-04-20 00:08 -34.55412 -58.42494 26 ft 3 kts 122°
2026-04-20 00:08 -34.55520 -58.42300 27 ft 60 kts 123°
2026-04-20 00:08 -34.55882 -58.41647 23 ft 125 kts 124°
2026-04-20 00:09 -34.56470 -58.40607 144 ft 169 kts 125°
2026-04-20 00:09 -34.57176 -58.39337 468 ft 189 kts 120°
2026-04-20 00:09 -34.57720 -58.38017 732 ft 166 kts 101°
2026-04-20 00:09 -34.57684 -58.36662 812 ft 166 kts 79°
2026-04-20 00:10 -34.57210 -58.35280 1260 ft 187 kts 60°
2026-04-20 00:10 -34.56297 -58.34072 1972 ft 203 kts 42°
2026-04-20 00:10 -34.55011 -58.33244 2676 ft 217 kts 17°
2026-04-20 00:10 -34.53514 -58.32866 3469 ft 225 kts 14°
2026-04-20 00:11 -34.51978 -58.32458 4281 ft 227 kts 13°
2026-04-20 00:11 -34.50428 -58.32055 5080 ft 228 kts 12°
2026-04-20 00:11 -34.48857 -58.31675 5786 ft 232 kts
2026-04-20 00:11 -34.47243 -58.31347 6422 ft 239 kts
2026-04-20 00:12 -34.45609 -58.31258 7039 ft 240 kts 350°
2026-04-20 00:12 -34.44069 -58.31982 7677 ft 239 kts 329°
2026-04-20 00:12 -34.42630 -58.33059 8343 ft 247 kts 327°
2026-04-20 00:12 -34.41097 -58.34231 8688 ft 272 kts 327°
2026-04-20 00:13 -34.39465 -58.35476 9357 ft 281 kts 327°
2026-04-20 00:13 -34.37793 -58.36737 10185 ft 285 kts 327°
2026-04-20 00:13 -34.36048 -58.38060 10552 ft 304 kts 327°
2026-04-20 00:13 -34.34212 -58.39468 10996 ft 320 kts 327°
2026-04-20 00:14 -34.32296 -58.40936 11481 ft 331 kts 327°
2026-04-20 00:14 -34.30332 -58.42438 12185 ft 336 kts 327°
2026-04-20 00:14 -34.28345 -58.43955 12983 ft 338 kts 326°
2026-04-20 00:14 -34.26348 -58.45483 13780 ft 341 kts 326°
2026-04-20 00:15 -34.24331 -58.47030 14517 ft 343 kts 326°
2026-04-20 00:15 -34.22335 -58.48566 15238 ft 345 kts 326°
2026-04-20 00:15 -34.20307 -58.50133 15942 ft 347 kts 325°
2026-04-20 00:15 -34.18265 -58.51717 16622 ft 349 kts 325°
2026-04-20 00:16 -34.16217 -58.53311 17279 ft 351 kts 325°
2026-04-20 00:16 -34.14216 -58.55012 17877 ft 352 kts 315°
2026-04-20 00:16 -34.12843 -58.57429 18468 ft 353 kts 292°
2026-04-20 00:16 -34.12306 -58.60321 19011 ft 357 kts 274°
2026-04-20 00:17 -34.12536 -58.63326 19578 ft 362 kts 263°
2026-04-20 00:17 -34.12978 -58.66331 20149 ft 365 kts 262°
2026-04-20 00:17 -34.13436 -58.69351 20728 ft 367 kts 262°
2026-04-20 00:17 -34.13922 -58.72390 21290 ft 369 kts 261°
2026-04-20 00:18 -34.14447 -58.75430 21843 ft 371 kts 261°
2026-04-20 00:18 -34.14622 -58.78517 22320 ft 370 kts 278°
2026-04-20 00:18 -34.13888 -58.81483 22816 ft 371 kts 295°
2026-04-20 00:18 -34.12370 -58.84016 23272 ft 378 kts 313°
2026-04-20 00:19 -34.10213 -58.85890 23666 ft 386 kts 325°
2026-04-20 00:19 -34.07875 -58.87499 24022 ft 388 kts 326°
2026-04-20 00:19 -34.05514 -58.89104 24373 ft 390 kts 326°
2026-04-20 00:19 -34.03133 -58.90694 24732 ft 392 kts 327°
2026-04-20 00:20 -34.00726 -58.92269 25093 ft 394 kts 327°
2026-04-20 00:20 -33.98322 -58.93803 25447 ft 396 kts 327°
2026-04-20 00:20 -33.95872 -58.95344 25801 ft 397 kts 326°
2026-04-20 00:20 -33.93516 -58.97073 26142 ft 396 kts 323°
2026-04-20 00:21 -33.91162 -58.98821 26464 ft 398 kts 323°
2026-04-20 00:21 -33.88794 -59.00567 26771 ft 400 kts 323°
2026-04-20 00:21 -33.86414 -59.02314 27079 ft 401 kts 323°
2026-04-20 00:21 -33.84023 -59.04065 27384 ft 402 kts 323°
2026-04-20 00:22 -33.81623 -59.05818 27651 ft 404 kts 323°
2026-04-20 00:22 -33.79218 -59.07572 27949 ft 404 kts 323°
2026-04-20 00:22 -33.76805 -59.09330 28005 ft 405 kts 323°
2026-04-20 00:22 -33.74397 -59.11081 27995 ft 403 kts 323°
2026-04-20 00:23 -33.72002 -59.12821 27986 ft 402 kts 323°
2026-04-20 00:23 -33.69610 -59.14558 27980 ft 402 kts 323°
2026-04-20 00:23 -33.67219 -59.16292 27977 ft 401 kts 323°
2026-04-20 00:23 -33.64860 -59.18003 27976 ft 401 kts 323°
2026-04-20 00:24 -33.62470 -59.19735 27974 ft 401 kts 323°
2026-04-20 00:24 -33.60079 -59.21466 27976 ft 401 kts 323°
2026-04-20 00:24 -33.57692 -59.23193 27978 ft 401 kts 323°
2026-04-20 00:24 -33.55300 -59.24922 27980 ft 401 kts 323°
2026-04-20 00:25 -33.52912 -59.26648 27978 ft 401 kts 323°
2026-04-20 00:25 -33.50520 -59.28375 27979 ft 401 kts 323°
2026-04-20 00:25 -33.48125 -59.30102 27978 ft 401 kts 323°
2026-04-20 00:25 -33.45733 -59.31828 27979 ft 401 kts 324°
2026-04-20 00:26 -33.43342 -59.33551 27978 ft 402 kts 324°
2026-04-20 00:26 -33.40946 -59.35276 27983 ft 401 kts 324°
2026-04-20 00:26 -33.38549 -59.37001 27987 ft 402 kts 324°
2026-04-20 00:26 -33.36154 -59.38723 27982 ft 402 kts 324°
2026-04-20 00:27 -33.33756 -59.40447 27986 ft 402 kts 324°
2026-04-20 00:27 -33.31353 -59.42173 27985 ft 402 kts 324°
2026-04-20 00:27 -33.28957 -59.43893 27984 ft 402 kts 324°
2026-04-20 00:27 -33.26587 -59.45592 27988 ft 403 kts 324°
2026-04-20 00:28 -33.24185 -59.47314 28000 ft 403 kts 324°
2026-04-20 00:28 -33.21780 -59.49037 27989 ft 403 kts 324°
2026-04-20 00:28 -33.19370 -59.50762 27991 ft 403 kts 324°
2026-04-20 00:28 -33.16961 -59.52486 27993 ft 404 kts 324°
2026-04-20 00:29 -33.14552 -59.54208 27985 ft 404 kts 324°
2026-04-20 00:29 -33.12138 -59.55934 27971 ft 404 kts 324°
2026-04-20 00:29 -33.09719 -59.57661 27966 ft 405 kts 325°
2026-04-20 00:29 -33.07303 -59.59385 27960 ft 405 kts 325°
2026-04-20 00:30 -33.04883 -59.61111 27961 ft 405 kts 325°
2026-04-20 00:30 -33.02464 -59.62834 27960 ft 405 kts 325°
2026-04-20 00:30 -33.00043 -59.64559 27961 ft 406 kts 325°
2026-04-20 00:30 -32.97617 -59.66286 27962 ft 406 kts 325°
2026-04-20 00:31 -32.95227 -59.67986 27963 ft 406 kts 325°
2026-04-20 00:31 -32.92769 -59.69733 27965 ft 406 kts 325°
2026-04-20 00:31 -32.90374 -59.71434 27963 ft 406 kts 325°
2026-04-20 00:31 -32.87945 -59.73159 27965 ft 407 kts 325°
2026-04-20 00:32 -32.85515 -59.74883 27974 ft 407 kts 326°
2026-04-20 00:32 -32.83081 -59.76608 27973 ft 407 kts 326°
2026-04-20 00:32 -32.80643 -59.78336 27965 ft 407 kts 326°
2026-04-20 00:32 -32.78200 -59.80067 27662 ft 410 kts 326°
2026-04-20 00:33 -32.75760 -59.81794 27411 ft 406 kts 326°
2026-04-20 00:33 -32.73325 -59.83518 26823 ft 408 kts 326°
2026-04-20 00:33 -32.70899 -59.85234 26284 ft 404 kts 326°
2026-04-20 00:33 -32.68497 -59.86933 25720 ft 400 kts 326°
2026-04-20 00:34 -32.66114 -59.88617 25187 ft 397 kts 326°
2026-04-20 00:34 -32.63751 -59.90288 24662 ft 394 kts 327°
2026-04-20 00:34 -32.61401 -59.91946 24137 ft 391 kts 327°
2026-04-20 00:34 -32.59069 -59.93592 23619 ft 389 kts 327°
2026-04-20 00:35 -32.56746 -59.95235 22917 ft 386 kts 327°
2026-04-20 00:35 -32.54466 -59.96847 22445 ft 380 kts 327°
2026-04-20 00:35 -32.52203 -59.98449 21979 ft 377 kts 327°
2026-04-20 00:35 -32.49957 -60.00039 21470 ft 376 kts 327°
2026-04-20 00:36 -32.47717 -60.01622 20981 ft 374 kts 327°
2026-04-20 00:36 -32.45492 -60.03193 20497 ft 371 kts 327°
2026-04-20 00:36 -32.43278 -60.04756 20001 ft 369 kts 327°
2026-04-20 00:36 -32.41077 -60.06307 19524 ft 367 kts 327°
2026-04-20 00:37 -32.38888 -60.07850 19038 ft 365 kts 328°
2026-04-20 00:37 -32.36710 -60.09385 18556 ft 363 kts 328°
2026-04-20 00:37 -32.34544 -60.10910 18047 ft 361 kts 328°
2026-04-20 00:37 -32.32422 -60.12402 17600 ft 358 kts 328°
2026-04-20 00:38 -32.30284 -60.13906 17125 ft 357 kts 328°
2026-04-20 00:38 -32.28155 -60.15402 16668 ft 355 kts 328°
2026-04-20 00:38 -32.26036 -60.16892 16195 ft 353 kts 328°
2026-04-20 00:38 -32.23927 -60.18371 15721 ft 352 kts 328°
2026-04-20 00:39 -32.21831 -60.19844 15278 ft 349 kts 328°
2026-04-20 00:39 -32.19749 -60.21302 14799 ft 347 kts 328°
2026-04-20 00:39 -32.17699 -60.22740 14354 ft 338 kts 328°
2026-04-20 00:39 -32.15703 -60.24137 13912 ft 330 kts 328°
2026-04-20 00:40 -32.13752 -60.25505 13465 ft 322 kts 328°
2026-04-20 00:40 -32.11847 -60.26837 13064 ft 314 kts 328°
2026-04-20 00:40 -32.09992 -60.28135 12649 ft 307 kts 328°
2026-04-20 00:40 -32.08170 -60.29410 12243 ft 301 kts 328°
2026-04-20 00:41 -32.06406 -60.30643 11857 ft 296 kts 328°
2026-04-20 00:41 -32.04649 -60.31871 11463 ft 291 kts 328°
2026-04-20 00:41 -32.02916 -60.33080 11078 ft 288 kts 328°
2026-04-20 00:41 -32.01198 -60.34274 10710 ft 285 kts 328°
2026-04-20 00:42 -31.99493 -60.35468 10333 ft 284 kts 328°
2026-04-20 00:42 -31.97796 -60.36653 9957 ft 283 kts 329°
2026-04-20 00:42 -31.96099 -60.37836 9552 ft 282 kts 329°
2026-04-20 00:42 -31.94419 -60.39009 9206 ft 280 kts 329°
2026-04-20 00:43 -31.92746 -60.40175 8840 ft 279 kts 329°
2026-04-20 00:43 -31.91072 -60.41337 8454 ft 279 kts 329°
2026-04-20 00:43 -31.89408 -60.42497 8096 ft 277 kts 329°
2026-04-20 00:43 -31.87753 -60.43650 7728 ft 276 kts 330°
2026-04-20 00:44 -31.86104 -60.44798 7367 ft 274 kts 330°
2026-04-20 00:44 -31.84498 -60.45915 6965 ft 266 kts 330°
2026-04-20 00:44 -31.82943 -60.46997 6626 ft 253 kts 330°
2026-04-20 00:44 -31.81390 -60.47816 6282 ft 241 kts 352°
2026-04-20 00:45 -31.79786 -60.47550 6024 ft 231 kts 25°
2026-04-20 00:45 -31.78453 -60.46599 5765 ft 220 kts 32°
2026-04-20 00:45 -31.77162 -60.45674 5432 ft 215 kts 31°
2026-04-20 00:45 -31.75897 -60.44772 5152 ft 209 kts 31°
2026-04-20 00:46 -31.74662 -60.43910 4890 ft 204 kts 31°
2026-04-20 00:46 -31.73455 -60.43083 4626 ft 199 kts 31°
2026-04-20 00:46 -31.72271 -60.42269 4367 ft 195 kts 31°
2026-04-20 00:46 -31.71104 -60.41483 4127 ft 192 kts 31°
2026-04-20 00:47 -31.69943 -60.40705 3853 ft 191 kts 31°
2026-04-20 00:47 -31.68789 -60.39940 3604 ft 189 kts 31°
2026-04-20 00:47 -31.67661 -60.39187 3372 ft 185 kts 31°
2026-04-20 00:47 -31.66456 -60.38690 3078 ft 187 kts
2026-04-20 00:48 -31.65294 -60.39266 2850 ft 190 kts 315°
2026-04-20 00:48 -31.64656 -60.40611 2666 ft 189 kts 291°
2026-04-20 00:48 -31.64438 -60.42141 2414 ft 194 kts 261°
2026-04-20 00:48 -31.65086 -60.43463 2281 ft 189 kts 213°
2026-04-20 00:49 -31.66298 -60.43938 2160 ft 185 kts 191°
2026-04-20 00:49 -31.67428 -60.44677 2068 ft 186 kts 217°
2026-04-20 00:49 -31.68449 -60.45624 2093 ft 187 kts 216°
2026-04-20 00:49 -31.69583 -60.46397 1917 ft 192 kts 192°
2026-04-20 00:50 -31.70860 -60.46535 1687 ft 174 kts 179°
2026-04-20 00:50 -31.72007 -60.46691 1541 ft 158 kts 187°
2026-04-20 00:50 -31.73043 -60.46927 1307 ft 149 kts 186°
2026-04-20 00:50 -31.74041 -60.47087 1125 ft 142 kts 185°
2026-04-20 00:51 -31.74991 -60.47269 952 ft 134 kts 188°
2026-04-20 00:51 -31.75911 -60.47413 829 ft 133 kts 187°
2026-04-20 00:51 -31.76831 -60.47575 649 ft 134 kts 187°
2026-04-20 00:51 -31.77754 -60.47734 466 ft 134 kts 186°
2026-04-20 00:52 -31.78676 -60.47898 314 ft 131 kts 187°
2026-04-20 00:52 -31.79481 -60.48039 278 ft 98 kts 187°
2026-04-20 00:52 -31.79857 -60.48149 276 ft 27 kts 213°
2026-04-20 00:52 -31.79924 -60.48209 274 ft 16 kts 227°
2026-04-20 00:53 -31.79900 -60.48320 272 ft 18 kts 341°
2026-04-20 00:53 -31.79773 -60.48314 272 ft 19 kts
2026-04-20 00:53 -31.79635 -60.48289 272 ft 21 kts
2026-04-20 00:53 -31.79486 -60.48263 272 ft 22 kts
2026-04-20 00:54 -31.79328 -60.48237 272 ft 22 kts
2026-04-20 00:54 -31.79176 -60.48210 272 ft 19 kts
2026-04-20 00:54 -31.79082 -60.48199 272 ft 10 kts 351°
2026-04-20 00:54 -31.79033 -60.48243 272 ft 5 kts 295°
2026-04-20 00:55 -31.79009 -60.48275 272 ft 6 kts 349°
2026-04-20 00:55 -31.78959 -60.48272 272 ft 8 kts
2026-04-20 00:55 -31.78927 -60.48262 272 ft 3 kts
2026-04-20 00:55 -31.78913 -60.48276 272 ft 3 kts 300°
2026-04-20 00:56 -31.78900 -60.48308 272 ft 2 kts 281°
2026-04-20 00:56 -31.78912 -60.48324 272 ft 3 kts 226°
2026-04-20 00:56 -31.78923 -60.48334 272 ft 1 kts 220°
2026-04-20 00:56 -31.78925 -60.48337 272 ft 0 kts 219°